TimeEST,TemperatureF,Dew PointF,Humidity,Sea Level PressureIn,VisibilityMPH,Wind Direction,Wind SpeedMPH,Gust SpeedMPH,PrecipitationIn,Events,Conditions,WindDirDegrees,DateUTC
12:15 AM,49.1,49.1,100,30.43,10.0,Calm,Calm,-,N/A,,Scattered Clouds,0,2013-11-06 05:15:00
12:35 AM,49.1,49.1,100,30.43,10.0,Calm,Calm,-,N/A,,Mostly Cloudy,0,2013-11-06 05:35:00
12:55 AM,49.1,49.1,100,30.42,10.0,Calm,Calm,-,N/A,,Overcast,0,2013-11-06 05:55:00
1:35 AM,48.6,48.6,100,30.41,10.0,Calm,Calm,-,N/A,,Scattered Clouds,0,2013-11-06 06:35:00
1:55 AM,48.4,48.4,100,30.41,10.0,Calm,Calm,-,N/A,,Scattered Clouds,0,2013-11-06 06:55:00
2:15 AM,48.2,48.2,100,30.41,10.0,Calm,Calm,-,N/A,,Overcast,0,2013-11-06 07:15:00
2:35 AM,48.4,48.4,100,30.40,10.0,Calm,Calm,-,N/A,,Overcast,0,2013-11-06 07:35:00
2:55 AM,48.2,47.8,99,30.40,10.0,Calm,Calm,-,N/A,,Overcast,0,2013-11-06 07:55:00
3:15 AM,47.5,47.5,100,30.39,10.0,Calm,Calm,-,N/A,,Scattered Clouds,0,2013-11-06 08:15:00
3:35 AM,46.8,46.8,100,30.39,10.0,Calm,Calm,-,N/A,,Clear,0,2013-11-06 08:35:00
3:55 AM,46.0,46.0,100,30.38,10.0,Calm,Calm,-,N/A,,Clear,0,2013-11-06 08:55:00
4:15 AM,45.7,45.7,100,30.38,10.0,Calm,Calm,-,N/A,,Clear,0,2013-11-06 09:15:00
4:35 AM,45.0,45.0,100,30.38,10.0,Calm,Calm,-,N/A,,Clear,0,2013-11-06 09:35:00
4:55 AM,44.6,44.6,100,30.38,10.0,Calm,Calm,-,N/A,,Clear,0,2013-11-06 09:55:00
5:15 AM,43.9,43.9,100,30.38,10.0,Calm,Calm,-,N/A,,Clear,0,2013-11-06 10:15:00
5:35 AM,43.2,43.2,100,30.38,10.0,Calm,Calm,-,N/A,,Clear,0,2013-11-06 10:35:00
5:55 AM,43.0,43.0,100,30.38,10.0,Calm,Calm,-,N/A,,Clear,0,2013-11-06 10:55:00
6:15 AM,42.8,42.8,100,30.38,10.0,Calm,Calm,-,N/A,,Clear,0,2013-11-06 11:15:00
6:35 AM,41.9,41.9,100,30.38,7.0,Calm,Calm,-,N/A,,Clear,0,2013-11-06 11:35:00
6:55 AM,42.4,42.4,100,30.38,10.0,Calm,Calm,-,N/A,,Clear,0,2013-11-06 11:55:00
7:15 AM,42.8,42.8,100,30.38,10.0,Calm,Calm,-,N/A,,Clear,0,2013-11-06 12:15:00
7:35 AM,44.2,44.2,100,30.37,10.0,Calm,Calm,-,N/A,,Clear,0,2013-11-06 12:35:00
7:55 AM,46.2,46.0,99,30.38,10.0,Calm,Calm,-,N/A,,Clear,0,2013-11-06 12:55:00
8:15 AM,48.0,45.3,90,30.38,10.0,NNE,3.5,-,N/A,,Clear,30,2013-11-06 13:15:00
8:35 AM,49.6,45.7,86,30.38,10.0,NE,4.6,-,N/A,,Clear,50,2013-11-06 13:35:00
8:55 AM,51.8,46.0,81,30.38,10.0,NE,4.6,-,N/A,,Clear,50,2013-11-06 13:55:00
9:15 AM,53.6,46.8,78,30.38,10.0,Calm,Calm,-,N/A,,Clear,0,2013-11-06 14:15:00
9:35 AM,55.0,46.9,74,30.37,10.0,ENE,4.6,-,N/A,,Clear,70,2013-11-06 14:35:00
9:55 AM,56.3,47.1,71,30.37,10.0,East,4.6,-,N/A,,Clear,100,2013-11-06 14:55:00
10:15 AM,56.7,46.9,70,30.37,10.0,Calm,Calm,-,N/A,,Clear,0,2013-11-06 15:15:00
10:35 AM,57.6,47.1,68,30.36,10.0,Calm,Calm,-,N/A,,Clear,0,2013-11-06 15:35:00
10:55 AM,59.2,47.5,65,30.35,10.0,Calm,Calm,-,N/A,,Clear,0,2013-11-06 15:55:00
11:15 AM,61.2,48.4,63,30.34,10.0,Calm,Calm,-,N/A,,Mostly Cloudy,0,2013-11-06 16:15:00
11:35 AM,61.5,48.4,62,30.33,10.0,Calm,Calm,-,N/A,,Overcast,0,2013-11-06 16:35:00
11:55 AM,62.1,48.6,61,30.33,10.0,Calm,Calm,-,N/A,,Overcast,0,2013-11-06 16:55:00
12:15 PM,65.7,48.7,54,30.31,10.0,Calm,Calm,-,N/A,,Mostly Cloudy,0,2013-11-06 17:15:00
12:35 PM,66.9,48.7,52,30.30,10.0,Calm,Calm,-,N/A,,Scattered Clouds,0,2013-11-06 17:35:00
12:55 PM,67.3,49.5,53,30.28,10.0,Calm,Calm,-,N/A,,Scattered Clouds,0,2013-11-06 17:55:00
1:15 PM,67.6,50.0,53,30.28,10.0,Calm,Calm,-,N/A,,Scattered Clouds,0,2013-11-06 18:15:00
1:35 PM,69.3,50.9,52,30.26,10.0,SSW,3.5,-,N/A,,Scattered Clouds,210,2013-11-06 18:35:00
1:55 PM,67.8,50.7,54,30.25,10.0,Calm,Calm,-,N/A,,Scattered Clouds,0,2013-11-06 18:55:00
2:15 PM,68.7,51.1,53,30.25,10.0,Calm,Calm,-,N/A,,Mostly Cloudy,0,2013-11-06 19:15:00
2:35 PM,69.1,50.9,52,30.24,10.0,SW,4.6,-,N/A,,Scattered Clouds,220,2013-11-06 19:35:00
2:55 PM,69.6,51.3,52,30.23,10.0,Calm,Calm,-,N/A,,Clear,0,2013-11-06 19:55:00
3:15 PM,69.6,51.4,52,30.22,10.0,East,3.5,-,N/A,,Clear,90,2013-11-06 20:15:00
3:35 PM,69.6,51.4,52,30.22,10.0,Calm,Calm,-,N/A,,Clear,0,2013-11-06 20:35:00
3:55 PM,69.3,51.6,53,30.21,10.0,Calm,Calm,-,N/A,,Clear,0,2013-11-06 20:55:00
4:15 PM,68.5,51.4,54,30.21,10.0,Calm,Calm,-,N/A,,Scattered Clouds,0,2013-11-06 21:15:00
4:35 PM,67.5,51.4,56,30.21,10.0,Calm,Calm,-,N/A,,Scattered Clouds,0,2013-11-06 21:35:00
4:55 PM,65.5,51.8,61,30.21,10.0,Calm,Calm,-,N/A,,Clear,0,2013-11-06 21:55:00
5:15 PM,63.5,52.2,67,30.20,10.0,Calm,Calm,-,N/A,,Mostly Cloudy,0,2013-11-06 22:15:00
5:35 PM,62.6,52.3,69,30.20,10.0,Calm,Calm,-,N/A,,Mostly Cloudy,0,2013-11-06 22:35:00
5:55 PM,61.3,52.5,73,30.21,10.0,Calm,Calm,-,N/A,,Mostly Cloudy,0,2013-11-06 22:55:00
6:15 PM,59.9,52.3,76,30.20,10.0,Calm,Calm,-,N/A,,Mostly Cloudy,0,2013-11-06 23:15:00
6:35 PM,59.2,52.3,78,30.20,10.0,Calm,Calm,-,N/A,,Scattered Clouds,0,2013-11-06 23:35:00
6:55 PM,58.3,51.8,79,30.19,10.0,Calm,Calm,-,N/A,,Scattered Clouds,0,2013-11-06 23:55:00
7:15 PM,56.5,51.8,84,30.19,10.0,Calm,Calm,-,N/A,,Scattered Clouds,0,2013-11-07 00:15:00
7:35 PM,55.6,52.0,88,30.19,10.0,Calm,Calm,-,N/A,,Scattered Clouds,0,2013-11-07 00:35:00
7:55 PM,54.9,51.3,88,30.18,10.0,Calm,Calm,-,N/A,,Scattered Clouds,0,2013-11-07 00:55:00
8:15 PM,56.1,51.8,85,30.18,10.0,Calm,Calm,-,N/A,,Mostly Cloudy,0,2013-11-07 01:15:00
8:35 PM,55.4,51.8,88,30.17,10.0,Calm,Calm,-,N/A,,Mostly Cloudy,0,2013-11-07 01:35:00
8:55 PM,54.5,51.8,91,30.16,10.0,Calm,Calm,-,N/A,,Scattered Clouds,0,2013-11-07 01:55:00
9:15 PM,53.2,51.4,94,30.16,10.0,Calm,Calm,-,N/A,,Scattered Clouds,0,2013-11-07 02:15:00
9:35 PM,53.1,51.3,94,30.16,10.0,Calm,Calm,-,N/A,,Scattered Clouds,0,2013-11-07 02:35:00
9:55 PM,51.8,51.8,100,30.16,10.0,Calm,Calm,-,N/A,,Clear,0,2013-11-07 02:55:00
10:15 PM,51.1,51.1,100,30.16,10.0,Calm,Calm,-,N/A,,Clear,0,2013-11-07 03:15:00
10:35 PM,50.4,50.4,100,30.15,10.0,Calm,Calm,-,N/A,,Clear,0,2013-11-07 03:35:00
10:55 PM,49.6,49.6,100,30.15,10.0,Calm,Calm,-,N/A,,Clear,0,2013-11-07 03:55:00
11:15 PM,49.8,49.8,100,30.13,10.0,Calm,Calm,-,N/A,,Clear,0,2013-11-07 04:15:00
11:35 PM,49.1,49.1,100,30.13,10.0,Calm,Calm,-,N/A,,Clear,0,2013-11-07 04:35:00
11:55 PM,49.3,49.3,100,30.13,10.0,Calm,Calm,-,N/A,,Clear,0,2013-11-07 04:55:00